Flag for Russia Weather past 2 weeks in Samara, Russia

Now
52 °F

Mostly cloudy.


Feels Like: 50 °F
Forecast: 46 / 62 °F
Wind: 6 mph from Northwest

Location: Samara

Current Time: Sep 1, 2015 at 12:25:41 AM

Latest Report: Sep 1, 2015 at 12:00 AM


Visibility: N/A

Pressure: 29.83 "Hg

Humidity: 54%

Dew point: 36 °F

Location of SamaraLocation

Historic Weather in Samara — Graph

°F

Samara temperature yesterday

Maximum temperature yesterday: 61 °F (at 2:30 PM)
Minimum temperature yesterday: 41 °F (at 6:00 AM)
Average temperature yesterday: 52 °F

Past Weeks' High & Low Weather Summary

 TemperatureHumidityPressure
High82 °F (Aug 28, 3:30 PM)88% (Aug 20, 6:30 AM)30.21 "Hg (Aug 20, 6:30 AM)
Low41 °F (Aug 24, 4:30 AM)20% (Aug 28, 5:00 PM)29.56 "Hg (Aug 30, 8:30 AM)
Average60 °F57%29.95 "Hg
* Reported Aug 16 11:00 PM — Aug 31 11:00 PM, Samara, Weather by CustomWeather, © 2015

Note: Actual official high and low records may vary slightly from our data, if they occured in-between our weather recording intervals... More about our weather records

Advertising

Samara weather history for previous 24 hours

 ConditionsComfort  
Time TempWeatherWind HumidityBarometerVisibility
11:00 PM
Mon, Aug 31
52 °FMostly cloudy.6 mph50%29.83 "HgN/A
10:30 PM52 °FMostly cloudy.6 mph50%29.83 "HgN/A
10:00 PM54 °FMostly cloudy.3 mph47%29.83 "HgN/A
9:30 PM54 °FMostly cloudy.6 mph44%29.83 "HgN/A
9:00 PM54 °FMostly cloudy.3 mph44%29.83 "HgN/A
8:30 PM54 °FMore clouds than sun.3 mph41%29.83 "HgN/A
8:00 PM54 °FMore clouds than sun.3 mph41%29.83 "HgN/A
7:30 PM55 °FSunny.6 mph38%29.83 "Hg10 mi
7:00 PM57 °FSunny.6 mph36%29.83 "Hg10 mi
6:30 PM59 °FSunny.10 mph31%29.83 "Hg10 mi
6:00 PM59 °FBroken clouds.8 mph31%29.83 "HgN/A
5:30 PM61 °FBroken clouds.10 mph29%29.80 "HgN/A
5:00 PM59 °FBroken clouds.13 mph31%29.80 "HgN/A
4:30 PM61 °FBroken clouds.15 mph31%29.80 "HgN/A
4:00 PM61 °FBroken clouds.13 mph31%29.80 "HgN/A
3:30 PM61 °FBroken clouds.15 mph29%29.80 "HgN/A
3:00 PM61 °FBroken clouds.15 mph31%29.80 "HgN/A
2:30 PM61 °FCloudy.15 mph29%29.80 "HgN/A
2:00 PM59 °FCloudy.13 mph34%29.80 "HgN/A
1:30 PM59 °FCloudy.13 mph34%29.80 "HgN/A
1:00 PM59 °FCloudy.13 mph36%29.80 "HgN/A
12:30 PM55 °FCloudy.13 mph41%29.80 "HgN/A
12:00 PM55 °FCloudy.13 mph38%29.80 "HgN/A
11:30 AM55 °FCloudy.15 mph38%29.80 "HgN/A
11:00 AM55 °FCloudy.13 mph38%29.80 "HgN/A
10:30 AM55 °FBroken clouds.13 mph44%29.80 "HgN/A
10:00 AM55 °FBroken clouds.15 mph44%29.80 "HgN/A
9:30 AM54 °FBroken clouds.13 mph47%29.80 "HgN/A
9:00 AM52 °FBroken clouds.10 mph62%29.80 "HgN/A
8:30 AM50 °FMore clouds than sun.8 mph71%29.83 "HgN/A
8:00 AM48 °FMore clouds than sun.10 mph76%29.83 "HgN/A
7:30 AM46 °FSunny.8 mph82%29.83 "Hg10 mi
7:00 AM45 °FSunny.8 mph81%29.80 "Hg10 mi
6:30 AM43 °FClear.10 mph81%29.80 "Hg10 mi
6:00 AM41 °FClear.8 mph87%29.80 "Hg10 mi
5:30 AM43 °FClear.8 mph81%29.80 "Hg10 mi
5:00 AM43 °FClear.8 mph81%29.80 "Hg10 mi
4:30 AM43 °FClear.8 mph81%29.80 "Hg10 mi
4:00 AM43 °FClear.8 mph81%29.80 "Hg10 mi
3:30 AM43 °FClear.8 mph81%29.80 "Hg10 mi
3:00 AM45 °FClear.8 mph76%29.77 "Hg10 mi
2:30 AM43 °FClear.8 mph81%29.77 "Hg10 mi
2:00 AM43 °FClear.8 mph81%29.77 "Hg10 mi
1:30 AM43 °FPassing clouds.8 mph81%29.77 "HgN/A
1:00 AM43 °FClear.8 mph76%29.77 "Hg10 mi
12:30 AM43 °FClear.6 mph81%29.77 "Hg10 mi
12:00 AM43 °FClear.3 mph81%29.77 "Hg10 mi
Weather by CustomWeather, © 2015

See weather overviewHow to use our weather pages